Regional Weather Roundup
Issued by NWS Wakefield, VA

Home | Current Version | Previous Version | Text Only | Print | Product List | Glossary Off
Versions: 1 2 3 4 5 6 7 8 9 10 11 12 13 14 15 16 17 18 19 20 21 22 23 24 25 26 27 28

000
ASUS41 KAKQ 250215
RWRAKQ

REGIONAL WEATHER ROUNDUP
NATIONAL WEATHER SERVICE WAKEFIELD VA
1000 PM EDT SAT SEP 24 2016

Note: "fair" indicates few or no clouds below 12,000 feet with no
significant weather and/or obstructions to visibility. * = Denotes
station may not report precipitation (e.g., rain,snow,etc.),
thunder or fog.

VAZ042-051-052>054-056-250300-
NORTHERN VIRGINIA

CITY           SKY/WX    TMP DP  RH WIND       PRES   REMARKS
WASH NATIONAL  PTCLDY    67  62  84 SE8       30.15R
DULLES         PTCLDY    64  59  83 E6        30.14R
FORT BELVOIR   CLEAR     63  60  90 CALM      30.14R
QUANTICO         N/A     70  62  76 E9        30.15R
FREDERICKSBRG* MOCLDY    69  64  85 E3        30.12S
STAFFORD*      CLOUDY    68  64  86 E7        30.17R
WARRENTON      PTCLDY    68  60  75 NE3       30.14R
CULPEPER*      CLOUDY    69  64  85 CALM      30.15R
MANASSAS*      CLEAR     66  63  88 CALM      30.14R
LEESBURG*      PTCLDY    64  63  94 CALM      30.16R
WINCHESTER     PTCLDY    66  55  68 CALM      30.15S
FRONT ROYAL*   MOCLDY    63  61  94 CALM      30.14R
LURAY*         CLOUDY    68  61  77 N5        30.15R
$$

VAZ048-049-060>072-079>083-250300-
CENTRAL AND SOUTH CENTRAL VIRGINIA

CITY           SKY/WX    TMP DP  RH WIND       PRES   REMARKS
RICHMOND       CLOUDY    69  64  84 NE7       30.11R
CHESTERFIELD*  CLOUDY    72  54  53 E5        30.12R
PETERSBURG*    LGT RAIN  73  65  76 E8        30.11R
HANOVER        CLOUDY    69  63  81 CALM      30.13R
TAPPAHANNOCK*  MOCLDY    70  66  88 NE7       30.13R
QUINTON*       CLOUDY    69  66  88 NE3       30.11R
CHARLOTTSVILLE CLOUDY    73  66  78 E6        30.13R
GORDONSVILLE*  CLOUDY    70  66  88 NE3       30.13R
ORANGE*          N/A     70  64  83 CALM      30.15R
LOUISA*        CLOUDY    73  70  88 E6        30.12R
BUMPASS*       CLOUDY    68  66  93 CALM      30.13R
FARMVILLE*     CLOUDY    74  68  82 NE7       30.10R
CREWE*         CLOUDY    71  69  93 NE5       30.11R
FORT PICKETT*  CLOUDY    71  67  87 NE9       30.11R
CHASE CITY*    CLOUDY    76  73  93 E7        30.08R
CLARKSVILLE*   CLOUDY    77  72  83 E10       30.06R
SOUTH HILL*    CLOUDY    74  71  91 NE3       30.14R
LAWRENCEVILLE* CLOUDY    73  69  88 NE7       30.09R
EMPORIA*       CLOUDY    72  68  88 NE7       30.10R
$$

VAZ088>098-250300-
SOUTHEAST VIRGINIA

CITY           SKY/WX    TMP DP  RH WIND       PRES   REMARKS
NORFOLK        CLOUDY    72  66  81 NE9       30.08S
VIRGINIA BEACH CLOUDY    72  65  78 NE10      30.08R
NORFOLK NAVAL  CLOUDY    73  66  78 NE12G17   30.11R
WEST POINT*    CLOUDY    69  66  89 CALM      30.13R
SALUDA*        CLOUDY    70  67  89 NE5       30.11R
NEWPORT NEWS   CLOUDY    71  66  84 E10       30.10R
LANGLEY AFB    CLOUDY    72  66  83 NE15      30.09R
FORT EUSTIS    MOCLDY    73  66  80 E8        30.07R
WILLIAMSBURG*  CLEAR     73  68  83 CALM      30.11R
HR EXEC AP*    MOCLDY    72  64  78 NE8       30.11R
FRANKLIN*      CLOUDY    72  68  86 NE8       30.09R
US460-WAKEFLD  CLOUDY    71  66  84 VRB5      30.09S
$$

VAZ020-022-025-037-045-250300-
WEST CENTRAL AND SOUTHWEST VIRGINIA

CITY           SKY/WX    TMP DP  RH WIND       PRES   REMARKS
STAUNTON*      CLOUDY    69  61  76 NE7       30.17R
WAYNESBORO*    CLOUDY    70  64  80 S5        30.15R
HOT SPRINGS VA CLEAR     67  60  78 N6        30.23S
LYNCHBURG      PTCLDY    73  68  84 NE10      30.12R
DANVILLE       MOCLDY    71  68  90 CALM      30.05R
SOUTH BOSTON*  MOCLDY    75  72  88 NE8G17    30.06R
MARTINSVILLE   CLEAR     67  65  93 CALM      30.10R
ROANOKE        PTCLDY    76  66  71 SE3       30.12R
BLACKSBURG     CLEAR     69  63  82 CALM      30.18S
DUBLIN*        CLEAR     73  63  68 NW3       30.17S
MARION*        CLEAR     66  62  85 CALM      30.21S
HILLSVILLE*    CLEAR     73  61  66 N3        30.18S
RICHLANDS*     FAIR      72  62  71 CALM      30.19S
WISE*          CLEAR     70  54  56 CALM      30.21S
ABINGDON*      CLEAR     70  61  73 CALM      30.16S
$$

MDZ021>025-VAZ099-100-250300-
SOUTHERN MARYLAND AND THE DELMARVA PENINSULA

CITY           SKY/WX    TMP DP  RH WIND       PRES   REMARKS
PATUXENT RIVER CLOUDY    66  60  81 E7        30.14R
BAY BRIDGE APT CLEAR     63  59  88 MISG      30.14R
LEONARDTOWN    MOCLDY    64  61  88 CALM      30.16R
DOVER          PTCLDY    61  61 100 SW2       30.13R FOG
GEORGETOWN     CLEAR     60  59  96 CALM      30.15R
EASTON         NOT AVBL
CAMBRIDGE      CLEAR     61  59  94 E3        30.14R
SALISBURY      CLOUDY    64  62  93 CALM      30.14R
OCEAN CITY     CLOUDY    68  59  73 NE7       30.13R
WALLOPS ISLAND CLOUDY    66  64  93 N8        30.12S
ACCOMACK*      CLOUDY    67  63  86 N5        30.12R
$$

NCZ012>017-030>032-250300-
NORTH CENTRAL AND EASTERN NORTH CAROLINA

CITY           SKY/WX    TMP DP  RH WIND       PRES   REMARKS
ROANOKE RAPIDS   N/A     72  70  94 NE7       30.07R
RALEIGH        PTCLDY    74  70  87 CALM      30.05R
ELIZABETH CITY CLOUDY    73  68  84 NE12      30.08R
AHOSKIE*       CLOUDY    73  70  88 NE5       30.07R
EDENTON*       MOCLDY    74  74 100 NE3       30.08R
CURRITUCK*     CLOUDY    74  68  82 NE8       30.09R
KILL DEVIL HLS NOT AVBL
MANTEO         CLEAR     73  69  87 NE18      30.06S
CAPE HATTERAS  MOCLDY    75  71  87 NE8       30.05R
TARBORO*       FAIR      75  73  91 E3        30.06R
GOLDSBORO      CLEAR     73  73  99 CALM      30.02S
WASHINGTON     CLEAR     74  72  93 NE8       30.05R
GREENVILLE     CLEAR     73  73 100 E13       30.06R
NEW BERN       CLEAR     73  70  90 S3        30.05R
WILMINGTON     CLEAR     73  71  93 CALM      30.05R
$$

VAZ048-250300-
ELSEWHERE

CITY           SKY/WX    TMP DP  RH WIND       PRES   REMARKS
HARRISBURG PA  PTCLDY    60  47  61 N3        30.16R
BALTIMORE      PTCLDY    60  57  89 CALM      30.14R
ANNAPOLIS      CLEAR     68  61  78 E5        30.14R
ANDREWS AFB    CLEAR     61  59  93 CALM      30.14R
PHILADELPHIA   CLEAR     64  50  60 N3        30.15R
HENDERSON NC   CLEAR     73  65  77 CALM      30.05R
GREENSBORO     PTCLDY    78  66  66 CALM      30.07R
ROCKY MOUNT    CLEAR     72  72 100 CALM      30.04R
$$

VAZ100-250300-
MARINE

STATION/POSITION TIME  TEMP    WIND        PRES    WAVE   SWELL
                       AIR SEA DIR/SP/G            HT/PER HT/PER
                 (UTC) (F)     (DEG/KT/KT) (MB)    (FT/S) (FT/S)
BRANDYWINE LGT   0100   65      80/  4/  5   N/A
CAPE MAY NJ      0100   63 74   70/  2/  3 1019.7R
LEWES DE         0100   67 73   50/  7/  9 1020.0R
OCEAN-CITY-INLET 0100   67 74   70/  6/ 10 1020.3R
WACHAPREAGUE VA  0100   68 77   10/  7/ 11 1019.3R
THOMAS POINT MD  0200   67 76  120/  6/  8 1022.0R
GOOSES REEF MD   0100   68 76  110/ 10/ 12 1020.7R   1/ 2
COVE POINT MD    0100   66      90/ 10/ 12 1020.7R
SOLOMONS ISLAND  0100   67 77   50/  8/ 10   N/A
BISHOPS HEAD MD  0100   66 75   30/ 11/ 13 1020.4R
PINEY POINT MD   0100           60/  6/  8   N/A
POTOMAC MD       0100   70 77   60/ 12/ 16 1018.9R   1/ 2
CAMBRIDGE MD     0100   65 76  100/  5/  8 1019.5R
LEWISETTA VA     0100   70 76   70/ 10/ 13 1019.2R
RAPPAHANNOCK LGT 0100           50/ 12/ 14 1019.7R
STINGRAY PT      0100   71 77   10/ 14/ 17 1019.5R   2/ 3
YORK RVR RNG VA  0100   72      90/ 13/ 16 1018.3R
YORKTOWN VA      0100   73 78   50/ 12/ 15 1018.4R
JAMESTOWN VA     0100   72 79   60/  8/ 10   N/A
DOMINION TERM VA 0100   73     360/  2/  6 1018.7R
KIPTOPEKE VA     0100      77   70/  9/ 16   N/A
CHES BAY BRIDGE  0100   72 77   30/ 19/ 21 1018.3R
CAPE HENRY VA    0100   72      40/ 18/ 20   N/A
WILLOUBY STN VA  0100   72      60/ 14/ 15   N/A
CAPE HENRY BUOY  0112      77                N/A     5/ 6   2/11
1ST LANDING BUOY 0100   73 77   80/ 16/ 19 1018.5R   3/ 4
CAPE CHARLES BUO 0126      77                N/A     5/10   2/11
OFFSHORE WE BUOY 0121      76                N/A     6/11   3/11
64NM E OF VA BCH 0150   73 74   20/ 17/ 21 1017.5R   5/11   3/11
DUCK PIER NC     0100   74 79   40/ 16/ 19 1017.7R
44056 DUCK FRF   0111      77                N/A     4/11   2/11
OREGON INLET NC  0100   74 80   30/ 12/ 18 1017.5R
HATTERAS NC      0100   78 82   40/  9/ 13 1016.9R
DIAMOND SHLS NC  0150   77 81   30/ 16/ 17 1017.1R   6/11   5/11
CAPE LOOKOUT NC  0200   80      90/  6/  6 1017.1R
$$




USA.gov is the U.S. government's official web portal to all federal, state and local government web resources and services.